TimePDT,TemperatureF,Dew PointF,Humidity,Sea Level PressureIn,VisibilityMPH,Wind Direction,Wind SpeedMPH,Gust SpeedMPH,PrecipitationIn,Events,Conditions,WindDirDegrees,DateUTC
12:52 AM,24.1,10.0,55,30.23,-9999.0,West,6.9,-,N/A,,Unknown,280,2013-04-17 07:52:00
1:52 AM,25.0,10.9,55,30.22,-9999.0,NW,6.9,-,N/A,,Unknown,310,2013-04-17 08:52:00
2:52 AM,21.9,10.0,60,30.24,-9999.0,South,4.6,-,N/A,,Unknown,170,2013-04-17 09:52:00
3:52 AM,27.0,12.0,53,30.24,-9999.0,WNW,5.8,-,N/A,,Unknown,300,2013-04-17 10:52:00
4:52 AM,23.0,10.0,58,30.26,-9999.0,WSW,5.8,-,N/A,,Unknown,240,2013-04-17 11:52:00
5:52 AM,19.0,10.0,68,30.28,-9999.0,SW,3.5,-,N/A,,Unknown,220,2013-04-17 12:52:00
6:52 AM,25.0,12.9,60,30.29,-9999.0,South,3.5,-,N/A,,Unknown,190,2013-04-17 13:52:00
7:52 AM,33.1,12.9,43,30.29,-9999.0,West,8.1,-,N/A,,Unknown,280,2013-04-17 14:52:00
8:52 AM,36.0,10.9,36,30.30,-9999.0,North,16.1,25.3,N/A,,Unknown,350,2013-04-17 15:52:00
9:52 AM,39.0,10.0,30,30.31,-9999.0,NW,15.0,23.0,N/A,,Unknown,320,2013-04-17 16:52:00
10:52 AM,41.0,9.0,27,30.32,-9999.0,NNW,13.8,23.0,N/A,,Unknown,340,2013-04-17 17:52:00
11:52 AM,42.1,7.0,24,30.32,-9999.0,NNW,16.1,21.9,N/A,,Unknown,340,2013-04-17 18:52:00
12:52 PM,46.0,7.0,20,30.31,-9999.0,NNW,15.0,23.0,N/A,,Unknown,330,2013-04-17 19:52:00
1:52 PM,46.0,5.0,19,30.29,-9999.0,Variable,4.6,17.3,N/A,,Unknown,0,2013-04-17 20:52:00
2:52 PM,51.1,5.0,15,30.27,-9999.0,NNW,13.8,23.0,N/A,,Unknown,330,2013-04-17 21:52:00
3:52 PM,50.0,3.0,15,30.25,-9999.0,NNW,10.4,21.9,N/A,,Unknown,330,2013-04-17 22:52:00
4:52 PM,51.1,3.9,15,30.26,-9999.0,NW,19.6,26.5,N/A,,Unknown,320,2013-04-17 23:52:00
5:34 PM,50.0,6.8,17,30.21,-9999.0,WNW,17.3,23.0,N/A,,Unknown,290,2013-04-18 00:34:00
5:52 PM,50.0,6.1,17,30.27,-9999.0,NW,10.4,-,N/A,,Unknown,310,2013-04-18 00:52:00
6:52 PM,48.0,5.0,17,30.27,-9999.0,WNW,12.7,-,N/A,,Unknown,300,2013-04-18 01:52:00
7:52 PM,42.1,6.1,23,30.28,-9999.0,NW,9.2,-,N/A,,Unknown,310,2013-04-18 02:52:00
8:52 PM,39.0,7.0,27,30.31,-9999.0,North,9.2,-,N/A,,Unknown,360,2013-04-18 03:52:00
9:52 PM,34.0,3.9,28,30.34,-9999.0,North,8.1,-,N/A,,Unknown,10,2013-04-18 04:52:00
10:52 PM,32.0,3.9,31,30.34,-9999.0,Calm,Calm,-,N/A,,Unknown,0,2013-04-18 05:52:00
11:52 PM,30.0,5.0,35,30.35,-9999.0,NNE,6.9,-,N/A,,Unknown,30,2013-04-18 06:52:00